| time (UTC) | temp F | wind direction | speed knots | gust knots | rain 1hr in | rain 24hr in | rain mn in | humidity % | barometer mb |
| 20260508114530 | 72 | 293 | 0.9 | 11.3 | 0.00 | 0.00 | 0.00 | 44 | 1016.0 |
| 20260508113108 | 72 | 39 | 3.5 | 7.0 | 0.00 | 0.00 | 0.00 | 43 | 1015.9 |
| 20260508111616 | 72 | 100 | 2.6 | 7.8 | 0.00 | 0.00 | 0.00 | 45 | 1016.2 |
| 20260508110127 | 71 | 74 | 1.7 | 5.2 | 0.00 | 0.00 | 0.00 | 45 | 1016.6 |
| 20260508104508 | 71 | 20 | 0.9 | 7.0 | 0.00 | 0.00 | 0.00 | 46 | 1016.8 |
| 20260508103043 | 72 | 93 | 0.9 | 8.7 | 0.00 | 0.00 | 0.00 | 46 | 1017.0 |
| 20260508101528 | 71 | 310 | 0.9 | 7.0 | 0.00 | 0.00 | 0.00 | 47 | 1016.8 |
| 20260508100103 | 71 | 52 | 2.6 | 7.0 | 0.00 | 0.00 | 0.00 | 48 | 1017.1 |
| 20260508094613 | 71 | 44 | 1.7 | 7.0 | 0.00 | 0.00 | 0.00 | 47 | 1017.6 |
| 20260508093124 | 70 | 95 | 1.7 | 10.4 | 0.00 | 0.00 | 0.00 | 48 | 1017.6 |
| 20260508091621 | 71 | 264 | 1.7 | 8.7 | 0.00 | 0.00 | 0.00 | 50 | 1017.9 |
| 20260508090028 | 70 | 101 | 1.7 | 8.7 | 0.00 | 0.00 | 0.00 | 51 | 1017.8 |
| 20260508084550 | 69 | 53 | 3.5 | 9.6 | 0.00 | 0.00 | 0.00 | 51 | 1017.9 |
| 20260508083006 | 69 | 34 | 2.6 | 7.8 | 0.00 | 0.00 | 0.00 | 49 | 1018.1 |
| 20260508081700 | 70 | 84 | 0.9 | 5.2 | 0.00 | 0.00 | 0.00 | 47 | 1017.9 |
| 20260508074606 | 69 | 36 | 1.7 | 8.7 | 0.00 | 0.00 | 0.00 | 46 | 1018.1 |
| 20260508073035 | 68 | 345 | 1.7 | 7.8 | 0.00 | 0.00 | 0.00 | 46 | 1018.4 |
| 20260508070124 | 68 | 132 | 1.7 | 5.2 | 0.00 | 0.00 | 0.00 | 45 | 1019.1 |
| 20260508064632 | 67 | 30 | 0.0 | 7.8 | 0.00 | 0.00 | 0.00 | 44 | 1018.9 |
| 20260508061517 | 68 | 75 | 0.9 | 4.3 | 0.00 | 0.00 | 0.00 | 39 | 1018.4 |
| 20260508060131 | 68 | 72 | 1.7 | 5.2 | 0.00 | 0.00 | 0.00 | 37 | 1018.0 |
| 20260508053026 | 67 | 93 | 0.0 | 2.6 | 0.00 | 0.00 | 0.00 | 42 | 1017.1 |
| 20260508051551 | 66 | 299 | 0.0 | 1.7 | 0.00 | 0.00 | 0.00 | 45 | 1016.7 |
| 20260508044613 | 64 | 299 | 0.0 | 1.7 | 0.00 | 0.00 | 0.00 | 54 | 1016.7 |
| 20260508043125 | 64 | 270 | 0.0 | 0.9 | 0.00 | 0.00 | 0.00 | 57 | 1016.5 |
| 20260508041514 | 64 | 270 | 0.0 | 0.9 | 0.00 | 0.00 | 0.00 | 57 | 1015.9 |
| 20260508040026 | 64 | 270 | 0.0 | 1.7 | 0.00 | 0.00 | 0.00 | 56 | 1015.5 |
| 20260508034602 | 64 | 271 | 0.0 | 0.9 | 0.00 | 0.00 | 0.00 | 54 | 1015.4 |
| 20260508033015 | 63 | 271 | 0.0 | 1.7 | 0.00 | 0.00 | 0.00 | 54 | 1015.3 |
| 20260508031523 | 63 | 271 | 0.0 | 2.6 | 0.00 | 0.00 | 0.00 | 56 | 1015.4 |
| 20260508030129 | 63 | 314 | 0.0 | 1.7 | 0.00 | 0.00 | 0.00 | 59 | 1015.4 |
| 20260508024613 | 63 | 315 | 0.0 | 1.7 | 0.00 | 0.00 | 0.00 | 59 | 1015.3 |
| 20260508023125 | 64 | 113 | 0.0 | 0.9 | 0.00 | 0.00 | 0.00 | 60 | 1015.6 |
| 20260508021511 | 64 | 113 | 0.0 | 0.9 | 0.00 | 0.00 | 0.00 | 59 | 1015.5 |
| 20260508020049 | 64 | 113 | 0.0 | 2.6 | 0.00 | 0.00 | 0.00 | 59 | 1015.5 |
| 20260508014557 | 64 | 103 | 0.0 | 1.7 | 0.00 | 0.00 | 0.00 | 57 | 1015.6 |
| 20260508013107 | 64 | 257 | 0.0 | 0.9 | 0.00 | 0.00 | 0.00 | 58 | 1015.9 |
| 20260508011616 | 64 | 257 | 0.0 | 0.9 | 0.00 | 0.00 | 0.00 | 58 | 1016.1 |
| 20260508010126 | 64 | 257 | 0.0 | 1.7 | 0.00 | 0.00 | 0.00 | 57 | 1016.3 |
| 20260508004510 | 64 | 257 | 0.0 | 0.0 | 0.00 | 0.00 | 0.00 | 56 | 1016.4 |
| 20260508003051 | 64 | 257 | 0.9 | 1.7 | 0.00 | 0.00 | 0.00 | 54 | 1016.3 |
| 20260508001600 | 64 | 257 | 0.0 | 0.9 | 0.00 | 0.00 | 0.00 | 55 | 1016.5 |
| 20260508000112 | 64 | 257 | 0.0 | 1.7 | 0.00 | 0.00 | 0.00 | 54 | 1016.5 |
| 20260507234625 | 64 | 257 | 0.0 | 0.9 | 0.00 | 0.00 | 0.00 | 53 | 1016.7 |
| 20260507233012 | 64 | 257 | 0.0 | 0.9 | 0.00 | 0.00 | 0.00 | 52 | 1017.1 |
| 20260507231508 | 64 | 257 | 0.0 | 1.7 | 0.00 | 0.00 | 0.00 | 51 | 1017.0 |
| 20260507230016 | 64 | 83 | 0.0 | 0.9 | 0.00 | 0.00 | 0.00 | 53 | 1017.1 |
| 20260507224604 | 65 | 307 | 0.0 | 0.0 | 0.00 | 0.00 | 0.00 | 53 | 1017.3 |
| 20260507223104 | 65 | 307 | 0.0 | 0.0 | 0.00 | 0.00 | 0.00 | 52 | 1017.4 |
| 20260507221614 | 65 | 307 | 0.0 | 0.9 | 0.00 | 0.00 | 0.00 | 54 | 1017.4 |
| 20260507220050 | 66 | 307 | 1.7 | 6.1 | 0.00 | 0.00 | 0.00 | 53 | 1017.5 |
| 20260507214613 | 66 | 78 | 0.0 | 2.6 | 0.00 | 0.00 | 0.00 | 51 | 1017.8 |
| 20260507213116 | 66 | 31 | 0.0 | 2.6 | 0.00 | 0.00 | 0.00 | 51 | 1017.8 |
| 20260507211630 | 67 | 93 | 0.9 | 4.3 | 0.00 | 0.00 | 0.00 | 50 | 1017.8 |
| 20260507210012 | 67 | 20 | 0.0 | 4.3 | 0.00 | 0.00 | 0.00 | 45 | 1017.9 |
| 20260507204557 | 67 | 72 | 0.0 | 6.1 | 0.00 | 0.00 | 0.00 | 43 | 1017.8 |
| 20260507203052 | 67 | 49 | 0.0 | 3.5 | 0.00 | 0.00 | 0.00 | 47 | 1017.9 |
| 20260507201601 | 67 | 70 | 0.0 | 0.0 | 0.00 | 0.00 | 0.00 | 50 | 1017.8 |
| 20260507200108 | 67 | 69 | 0.0 | 0.9 | 0.00 | 0.00 | 0.00 | 49 | 1017.8 |
| 20260507194620 | 68 | 110 | 0.0 | 2.6 | 0.00 | 0.00 | 0.00 | 48 | 1017.9 |
| 20260507193129 | 68 | 119 | 0.9 | 2.6 | 0.00 | 0.00 | 0.00 | 48 | 1017.6 |
| 20260507191509 | 68 | 262 | 0.0 | 3.5 | 0.00 | 0.00 | 0.00 | 45 | 1017.6 |
| 20260507190046 | 69 | 292 | 0.9 | 10.4 | 0.00 | 0.00 | 0.00 | 36 | 1017.4 |
| 20260507184554 | 68 | 329 | 2.6 | 6.1 | 0.00 | 0.00 | 0.00 | 38 | 1017.5 |
| 20260507183102 | 69 | 38 | 0.9 | 5.2 | 0.00 | 0.00 | 0.00 | 39 | 1017.4 |
| 20260507181611 | 69 | 77 | 0.0 | 3.5 | 0.00 | 0.00 | 0.00 | 42 | 1017.4 |
| 20260507180119 | 69 | 248 | 0.0 | 3.5 | 0.00 | 0.00 | 0.00 | 42 | 1017.3 |
| 20260507174502 | 69 | 27 | 0.9 | 5.2 | 0.00 | 0.00 | 0.00 | 43 | 1017.2 |
| 20260507173013 | 69 | 40 | 0.9 | 3.5 | 0.00 | 0.00 | 0.00 | 43 | 1017.4 |
| 20260507171549 | 71 | 117 | 1.7 | 5.2 | 0.00 | 0.00 | 0.00 | 38 | 1017.2 |
| 20260507170054 | 71 | 33 | 1.7 | 6.1 | 0.00 | 0.00 | 0.00 | 34 | 1016.8 |
| 20260507164603 | 71 | 43 | 0.9 | 5.2 | 0.00 | 0.00 | 0.00 | 35 | 1016.5 |
| 20260507163114 | 71 | 31 | 0.9 | 5.2 | 0.00 | 0.00 | 0.00 | 36 | 1016.6 |
| 20260507161621 | 72 | 34 | 1.7 | 4.3 | 0.00 | 0.00 | 0.00 | 37 | 1016.8 |
| 20260507160002 | 72 | 120 | 0.9 | 6.1 | 0.00 | 0.00 | 0.00 | 35 | 1016.6 |
| 20260507154510 | 72 | 321 | 3.5 | 7.0 | 0.00 | 0.00 | 0.00 | 35 | 1016.9 |
| 20260507153020 | 74 | 243 | 1.7 | 6.1 | 0.00 | 0.00 | 0.00 | 34 | 1017.1 |
| 20260507151555 | 74 | 56 | 3.5 | 8.7 | 0.00 | 0.00 | 0.00 | 34 | 1017.3 |
| 20260507150003 | 74 | 359 | 1.7 | 7.0 | 0.00 | 0.00 | 0.00 | 35 | 1017.3 |
| 20260507144513 | 74 | 37 | 2.6 | 11.3 | 0.00 | 0.00 | 0.00 | 36 | 1017.2 |
| 20260507143152 | 74 | 32 | 2.6 | 13.0 | 0.00 | 0.00 | 0.00 | 35 | 1017.2 |
| 20260507141626 | 74 | 72 | 2.6 | 14.8 | 0.00 | 0.00 | 0.00 | 33 | 1017.1 |
| 20260507140007 | 75 | 37 | 1.7 | 11.3 | 0.00 | 0.00 | 0.00 | 35 | 1016.7 |
| 20260507134520 | 76 | 24 | 5.2 | 14.8 | 0.00 | 0.00 | 0.00 | 30 | 1016.8 |
| 20260507133052 | 76 | 23 | 5.2 | 13.9 | 0.00 | 0.00 | 0.00 | 30 | 1016.6 |
| 20260507131621 | 76 | 4 | 3.5 | 10.4 | 0.00 | 0.00 | 0.00 | 31 | 1016.5 |
| 20260507130112 | 76 | 121 | 1.7 | 11.3 | 0.00 | 0.00 | 0.00 | 34 | 1016.8 |
| 20260507124622 | 76 | 342 | 1.7 | 8.7 | 0.00 | 0.00 | 0.00 | 34 | 1017.0 |
| 20260507123059 | 76 | 31 | 0.9 | 7.8 | 0.00 | 0.00 | 0.00 | 36 | 1017.2 |
| 20260507121608 | 76 | 22 | 1.7 | 7.8 | 0.00 | 0.00 | 0.00 | 35 | 1017.3 |
| 20260507120114 | 77 | 320 | 0.9 | 12.2 | 0.00 | 0.00 | 0.00 | 37 | 1017.4 |